Погода в Буранном

Россия / Оренбургская область     50°58′38″N   54°27′55″E
темп.,
°C
ветер,
м/с
пор.,
м/с
влажн.,
%
обл.,
%
осадки,
мм/ч
давл.,
гПа
погр.,
м
23 сентября, чт
чт2323:00+14вюв3726100 0.0 1021210
02:00+14в4826100 0.0 1020248
05:00+14в4832100 0.0 1021221
08:00+14вюв61128100 0.0 1021389
11:00+15вюв6112597 0.0 1022679
14:00+17вюв8112398 0.0 1021951
17:00+20вюв71023100 0.0 10191539
20:00+17вюв61328100 0.0 1019348
24 сентября, пт
пт2423:00+17юв81425100 0.0 1020673
02:00+17юв81422100 0.0 1021745
05:00+15вюв101525100 0.0 1020729
08:00+14юв91635100 0.0 1020719
11:00+15юв101431100 0.0 1020851
14:00+19юв101324100 0.0 10171140
17:00+20юв101422100 0.0 10151238
20:00+19юв91522100 0.0 1014938
25 сентября, сб
сб2523:00+17юв101723100 0.0 1013910
02:00+16юв101825100 0.0 1012867
05:00+15юв91725100 0.0 1010727
08:00+15юв81424100 0.0 1009667
11:00+14юв71241100 0.0 1010582
14:00+14юв8950100 0.0 1010671
17:00+13юв4671100 0.0 1010375
20:00+12юв337470 0.0 101060
26 сентября, вс
вс2623:00+12ююз2272100 0.0 100923
02:00+11зсз227078 0.0 100913
05:00+10юз2368100 0.0 100914
08:00+12з3660100 0.0 1008192
11:00+14зюз5662100 0.0 1008871
14:00+17зюз5547100 0.1 10081479
17:00+17з4439100 0.1 10071983
20:00+15зюз3547100 0.0 1008129
27 сентября, пн
пн2723:00+13з365165 0.0 1008131
02:00+12з3354100 0.0 100866
05:00+12сз2354100 0.0 100960
08:00+10с116952 0.0 101015
11:00+14в44525 0.0 10111046
14:00+15всв8847100 0.1 10111185
17:00+12всв10115190 0.2 1013768
20:00+8всв91161100 0.0 1016701